Regional Weather Roundup
Issued by NWS Goodland, KS

Home | Current Version | Previous Version | Graphics & Text | Print | Product List | Glossary On
Versions: 1 2 3 4 5 6 7 8 9 10 11 12 13 14 15 16 17 18 19 20 21 22 23 24 25 26 27 28 29 30 31 32 33 34 35 36 37 38 39 40 41 42 43 44 45 46 47 48 49 50
000
ASUS43 KGLD 261708
RWRGLD

GOODLAND FORECAST AREA HOURLY WEATHER ROUNDUP
NATIONAL WEATHER SERVICE GOODLAND KS
1000 AM MST SUN FEB 26 2017

...OFFICIAL OBSERVATIONS...

CITY           SKY/WX    TMP DP  RH WIND       PRES   REMARKS
GOODLAND KS    SUNNY     38   7  27 E9        29.90S
HILL CITY KS   SUNNY     43   9  24 N16       29.96F
IMPERIAL NEB   SUNNY     32  12  43 NW12      29.93R
MCCOOK NEB     SUNNY     37  12  35 W16       29.94R
AKRON CO       SUNNY     29   8  41 VRB3      29.87R
BURLINGTON CO  SUNNY     37  10  32 E10       29.88S
LIMON CO       SUNNY     29   6  38 SE9       29.83S
$$

...UNOFFICIAL OBSERVATIONS...

CITY           SKY/WX    TMP DP  RH WIND       PRES   REMARKS
LENORA KS        N/A     40  32  73 N10         N/A
SHARON SPRINGS   N/A     38  11  32 E9G17       N/A
TRIBUNE KS     SUNNY     41  12  30 E13G20    29.92F
TRENTON NEB      N/A     36  32  85 NW12        N/A
KIT CARSON CO    N/A     34  12  40 MISG        N/A
YUMA CO        FAIR      30  10  43 W7        29.90R
$$



USA.gov is the U.S. government's official web portal to all federal, state and local government web resources and services.